Location: Fontevrault
(47.1823°N, 0.0493°E)
Time: 16:32:01
(UTC+00:00)

Cosmos 2333 Rocket - Pass Details

Date: 16 June 2021
Orbit: 841 x 861 km, 70.8° (Epoch: 31 July)

Event Time Altitude Azimuth Distance (km) Brightness Sun altitude
Exits shadow 21:09:00 12° 148° (SSE) 2,365 3.9 -9.5°
Maximum altitude 21:12:54 23° 102° (ESE) 1,754 3.4 -10.0°
Drops below altitude 10° 21:17:15 10° 52° (NE) 2,494 4.7 -10.4°
Sets 21:20:11 0° 38° (NE) 3,432 5.6 -10.7°
